TAM3061 SBCT-SBSP

Flight info

Callsign TAM3061
Flight time 0h 40m
Altitude 29000
Route EDVEB UM548 DOSMU DCT ANISE
Aircraft A320/M-SDE3FGHIRWY/LB1

Departure

Time 2026-05-06 13:12
Airport Curitiba-Afonso Pena International Airport (SBCT)

Arrival

Time 2026-05-06 13:52
Airport Congonhas–Deputado Freitas Nobre Airport (SBSP)
Time Latitude Longitude Altitude Speed Heading
2026-05-06 12:37 -25.53493 -49.17306 2981 ft 0 kts 225°
2026-05-06 13:02 -25.53478 -49.17289 2980 ft 4 kts 225°
2026-05-06 13:02 -25.53462 -49.17270 2980 ft 4 kts 243°
2026-05-06 13:03 -25.53458 -49.17244 2980 ft 4 kts 291°
2026-05-06 13:03 -25.53467 -49.17228 2980 ft 1 kts 314°
2026-05-06 13:03 -25.53469 -49.17226 2980 ft 0 kts 314°
2026-05-06 13:06 -25.53463 -49.17232 2980 ft 2 kts 315°
2026-05-06 13:06 -25.53447 -49.17248 2980 ft 4 kts 318°
2026-05-06 13:06 -25.53422 -49.17272 2980 ft 5 kts 332°
2026-05-06 13:06 -25.53386 -49.17259 2981 ft 6 kts 37°
2026-05-06 13:07 -25.53343 -49.17247 2981 ft 7 kts 340°
2026-05-06 13:07 -25.53305 -49.17288 2981 ft 8 kts 312°
2026-05-06 13:07 -25.53260 -49.17340 2981 ft 10 kts 316°
2026-05-06 13:07 -25.53209 -49.17349 2981 ft 8 kts 27°
2026-05-06 13:08 -25.53168 -49.17305 2983 ft 8 kts 44°
2026-05-06 13:08 -25.53128 -49.17272 2984 ft 7 kts 13°
2026-05-06 13:08 -25.53085 -49.17310 2984 ft 11 kts 313°
2026-05-06 13:08 -25.52999 -49.17408 2984 ft 23 kts 315°
2026-05-06 13:09 -25.52879 -49.17546 2983 ft 26 kts 316°
2026-05-06 13:09 -25.52746 -49.17688 2982 ft 27 kts 315°
2026-05-06 13:09 -25.52610 -49.17840 2982 ft 28 kts 314°
2026-05-06 13:09 -25.52473 -49.17996 2983 ft 29 kts 314°
2026-05-06 13:10 -25.52332 -49.18153 2984 ft 26 kts 315°
2026-05-06 13:10 -25.52259 -49.18220 2984 ft 11 kts 346°
2026-05-06 13:10 -25.52207 -49.18243 2983 ft 8 kts 306°
2026-05-06 13:10 -25.52223 -49.18276 2983 ft 3 kts 170°
2026-05-06 13:11 -25.52245 -49.18254 2983 ft 5 kts 133°
2026-05-06 13:11 -25.52336 -49.18149 2984 ft 51 kts 134°
2026-05-06 13:11 -25.52762 -49.17669 2983 ft 119 kts 135°
2026-05-06 13:11 -25.53468 -49.16878 3002 ft 166 kts 135°
2026-05-06 13:12 -25.54274 -49.15989 3542 ft 159 kts 133°
2026-05-06 13:12 -25.55053 -49.15111 3955 ft 159 kts 132°
2026-05-06 13:12 -25.55707 -49.14106 4241 ft 169 kts 104°
2026-05-06 13:12 -25.55728 -49.12745 4421 ft 189 kts 79°
2026-05-06 13:13 -25.55531 -49.11207 4612 ft 213 kts 81°
2026-05-06 13:13 -25.55339 -49.09494 4940 ft 234 kts 81°
2026-05-06 13:13 -25.55142 -49.07634 5269 ft 259 kts 82°
2026-05-06 13:13 -25.54930 -49.05593 5914 ft 272 kts 82°
2026-05-06 13:14 -25.54715 -49.03488 6751 ft 277 kts 81°
2026-05-06 13:14 -25.54500 -49.01355 7542 ft 281 kts 82°
2026-05-06 13:14 -25.54282 -48.99192 8347 ft 284 kts 82°
2026-05-06 13:14 -25.54057 -48.96998 9108 ft 290 kts 82°
2026-05-06 13:15 -25.53824 -48.94756 9884 ft 295 kts 81°
2026-05-06 13:15 -25.53553 -48.92483 10527 ft 304 kts 78°
2026-05-06 13:15 -25.53054 -48.90106 10724 ft 327 kts 75°
2026-05-06 13:15 -25.52501 -48.87586 11053 ft 343 kts 75°
2026-05-06 13:16 -25.51926 -48.84990 11643 ft 349 kts 75°
2026-05-06 13:16 -25.51344 -48.82367 12252 ft 354 kts 76°
2026-05-06 13:16 -25.50754 -48.79704 12867 ft 358 kts 76°
2026-05-06 13:16 -25.50166 -48.77044 13480 ft 362 kts 76°
2026-05-06 13:17 -25.49567 -48.74321 14043 ft 367 kts 76°
2026-05-06 13:17 -25.48960 -48.71560 14572 ft 371 kts 76°
2026-05-06 13:17 -25.48349 -48.68777 15106 ft 374 kts 76°
2026-05-06 13:17 -25.47731 -48.65967 15634 ft 378 kts 76°
2026-05-06 13:18 -25.47686 -48.65762 15673 ft 378 kts 77°
2026-05-06 13:18 -25.47097 -48.63097 16197 ft 381 kts 77°
2026-05-06 13:18 -25.46914 -48.62270 16359 ft 382 kts 77°
2026-05-06 13:19 -25.46708 -48.61341 16536 ft 383 kts 77°
2026-05-06 13:19 -25.46072 -48.58456 17074 ft 387 kts 77°
2026-05-06 13:19 -25.45431 -48.55554 17611 ft 391 kts 77°
2026-05-06 13:19 -25.44782 -48.52620 18153 ft 395 kts 77°
2026-05-06 13:20 -25.44122 -48.49652 18671 ft 399 kts 77°
2026-05-06 13:20 -25.43454 -48.46664 19158 ft 402 kts 77°
2026-05-06 13:20 -25.42778 -48.43649 19663 ft 406 kts 77°
2026-05-06 13:20 -25.42098 -48.40605 20178 ft 409 kts 77°
2026-05-06 13:21 -25.41412 -48.37527 20684 ft 413 kts 77°
2026-05-06 13:21 -25.40724 -48.34430 21190 ft 417 kts 78°
2026-05-06 13:21 -25.40028 -48.31305 21692 ft 420 kts 78°
2026-05-06 13:21 -25.39326 -48.28151 22190 ft 424 kts 78°
2026-05-06 13:22 -25.39297 -48.28019 22211 ft 424 kts 78°
2026-05-06 13:22 -25.38939 -48.26411 22457 ft 426 kts 78°
2026-05-06 13:23 -25.38332 -48.23696 22861 ft 429 kts 78°
2026-05-06 13:23 -25.37612 -48.20480 23345 ft 433 kts 78°
2026-05-06 13:24 -25.36881 -48.17229 23815 ft 436 kts 78°
2026-05-06 13:24 -25.36396 -48.15070 24053 ft 438 kts 78°
2026-05-06 13:24 -25.35656 -48.11795 24163 ft 440 kts 78°
2026-05-06 13:24 -25.34915 -48.08515 24200 ft 440 kts 78°
2026-05-06 13:25 -25.34175 -48.05239 24199 ft 440 kts 78°
2026-05-06 13:25 -25.33435 -48.01965 24201 ft 440 kts 78°
2026-05-06 13:25 -25.32693 -47.98685 24203 ft 440 kts 78°
2026-05-06 13:25 -25.31987 -47.95392 24201 ft 439 kts 79°
2026-05-06 13:26 -25.31361 -47.92084 24266 ft 441 kts 81°
2026-05-06 13:26 -25.30794 -47.88787 24708 ft 443 kts 82°
2026-05-06 13:26 -25.30235 -47.85423 25109 ft 446 kts 82°
2026-05-06 13:26 -25.29667 -47.82032 25492 ft 449 kts 82°
2026-05-06 13:27 -25.29080 -47.78621 25875 ft 452 kts 82°
2026-05-06 13:27 -25.28476 -47.75203 26257 ft 455 kts 82°
2026-05-06 13:27 -25.27857 -47.71756 26620 ft 458 kts 82°
2026-05-06 13:27 -25.27228 -47.68288 26974 ft 461 kts 82°
2026-05-06 13:28 -25.26590 -47.64804 27315 ft 464 kts 82°
2026-05-06 13:28 -25.25949 -47.61290 27656 ft 468 kts 83°
2026-05-06 13:28 -25.25306 -47.57758 28003 ft 471 kts 83°
2026-05-06 13:28 -25.24659 -47.54194 28345 ft 474 kts 83°
2026-05-06 13:29 -25.24011 -47.50618 28677 ft 477 kts 83°
2026-05-06 13:29 -25.23127 -47.47063 28996 ft 486 kts 72°
2026-05-06 13:29 -25.21613 -47.43699 29174 ft 491 kts 61°
2026-05-06 13:30 -25.17416 -47.37905 29204 ft 483 kts 51°
2026-05-06 13:30 -25.13111 -47.32239 29201 ft 482 kts 53°
2026-05-06 13:31 -25.08872 -47.26509 29202 ft 481 kts 53°
2026-05-06 13:31 -25.04606 -47.20811 29199 ft 482 kts 52°
2026-05-06 13:32 -25.00308 -47.15146 29203 ft 482 kts 52°
2026-05-06 13:32 -24.96000 -47.09481 29206 ft 481 kts 52°
2026-05-06 13:33 -24.91698 -47.03818 29205 ft 481 kts 52°
2026-05-06 13:33 -24.87431 -46.98202 28897 ft 472 kts 52°
2026-05-06 13:33 -24.85334 -46.95447 28634 ft 466 kts 52°
2026-05-06 13:34 -24.83264 -46.92721 28378 ft 462 kts 52°
2026-05-06 13:34 -24.81209 -46.90018 28106 ft 459 kts 52°
2026-05-06 13:34 -24.79164 -46.87335 27846 ft 455 kts 52°
2026-05-06 13:34 -24.77136 -46.84671 27356 ft 453 kts 52°
2026-05-06 13:35 -24.75116 -46.82021 26834 ft 451 kts 51°
2026-05-06 13:35 -24.73107 -46.79389 26324 ft 448 kts 51°
2026-05-06 13:35 -24.71131 -46.76808 25838 ft 446 kts 51°
2026-05-06 13:35 -24.69142 -46.74208 25359 ft 442 kts 51°
2026-05-06 13:36 -24.67168 -46.71629 24882 ft 439 kts 50°
2026-05-06 13:36 -24.65203 -46.69065 24407 ft 437 kts 50°
2026-05-06 13:36 -24.63162 -46.66610 23925 ft 434 kts 42°
2026-05-06 13:36 -24.60749 -46.64659 23492 ft 427 kts 30°
2026-05-06 13:37 -24.58049 -46.63322 22958 ft 423 kts 16°
2026-05-06 13:37 -24.55195 -46.62648 22495 ft 418 kts
2026-05-06 13:37 -24.52314 -46.62554 22077 ft 411 kts 358°
2026-05-06 13:37 -24.49502 -46.62557 21666 ft 402 kts 359°
2026-05-06 13:38 -24.46732 -46.62557 21262 ft 393 kts 359°
2026-05-06 13:38 -24.44024 -46.62555 20881 ft 387 kts 359°
2026-05-06 13:38 -24.41334 -46.62555 20474 ft 385 kts 359°
2026-05-06 13:38 -24.38664 -46.62557 20079 ft 383 kts 359°
2026-05-06 13:39 -24.35992 -46.62561 19568 ft 383 kts 359°
2026-05-06 13:39 -24.33355 -46.62563 19085 ft 383 kts 360°
2026-05-06 13:39 -24.30693 -46.62565 18595 ft 382 kts 360°
2026-05-06 13:39 -24.28029 -46.62565 18066 ft 382 kts 360°
2026-05-06 13:40 -24.25378 -46.62566 17574 ft 379 kts
2026-05-06 13:40 -24.22747 -46.62568 17095 ft 377 kts
2026-05-06 13:40 -24.20139 -46.62572 16623 ft 374 kts
2026-05-06 13:40 -24.17539 -46.62575 16146 ft 372 kts
2026-05-06 13:41 -24.14956 -46.62576 15671 ft 370 kts
2026-05-06 13:41 -24.12391 -46.62577 15205 ft 368 kts
2026-05-06 13:41 -24.09834 -46.62578 14732 ft 366 kts
2026-05-06 13:41 -24.07293 -46.62580 14263 ft 364 kts
2026-05-06 13:42 -24.04774 -46.62582 13775 ft 361 kts
2026-05-06 13:42 -24.02273 -46.62581 13306 ft 358 kts
2026-05-06 13:42 -23.99793 -46.62582 12850 ft 353 kts
2026-05-06 13:42 -23.97347 -46.62583 12398 ft 349 kts
2026-05-06 13:43 -23.94958 -46.62584 11962 ft 346 kts
2026-05-06 13:43 -23.92565 -46.62586 11529 ft 342 kts
2026-05-06 13:43 -23.90192 -46.62587 11132 ft 339 kts
2026-05-06 13:43 -23.87840 -46.62598 10709 ft 336 kts 358°
2026-05-06 13:44 -23.85562 -46.63038 10435 ft 330 kts 343°
2026-05-06 13:44 -23.83516 -46.64079 10334 ft 319 kts 329°
2026-05-06 13:44 -23.81677 -46.65361 10225 ft 308 kts 329°
2026-05-06 13:44 -23.79896 -46.66599 10058 ft 299 kts 329°
2026-05-06 13:45 -23.78143 -46.67812 9711 ft 297 kts 329°
2026-05-06 13:45 -23.74685 -46.70209 9295 ft 291 kts 329°
2026-05-06 13:45 -23.72973 -46.71401 9316 ft 292 kts 329°
2026-05-06 13:46 -23.71282 -46.72576 9259 ft 293 kts 329°
2026-05-06 13:46 -23.69565 -46.73765 8968 ft 291 kts 329°
2026-05-06 13:46 -23.67899 -46.74915 8726 ft 289 kts 329°
2026-05-06 13:46 -23.66200 -46.76088 8324 ft 293 kts 329°
2026-05-06 13:47 -23.64476 -46.77284 7989 ft 292 kts 329°
2026-05-06 13:47 -23.62773 -46.78468 7688 ft 289 kts 329°
2026-05-06 13:47 -23.61083 -46.79639 7442 ft 287 kts 329°
2026-05-06 13:47 -23.59332 -46.80682 6899 ft 291 kts 343°
2026-05-06 13:48 -23.57339 -46.80974 6143 ft 290 kts
2026-05-06 13:48 -23.55435 -46.80366 5498 ft 283 kts 31°
2026-05-06 13:48 -23.53986 -46.79048 5299 ft 261 kts 53°
2026-05-06 13:48 -23.53074 -46.77438 5207 ft 240 kts 62°
2026-05-06 13:49 -23.52302 -46.75904 5122 ft 223 kts 62°
2026-05-06 13:49 -23.51699 -46.74406 4977 ft 212 kts 84°
2026-05-06 13:49 -23.52024 -46.72936 4773 ft 199 kts 129°
2026-05-06 13:49 -23.53157 -46.72114 4593 ft 197 kts 154°
2026-05-06 13:50 -23.54345 -46.71399 4323 ft 193 kts 146°
2026-05-06 13:50 -23.55461 -46.70632 4085 ft 186 kts 146°
2026-05-06 13:50 -23.56516 -46.69903 3904 ft 171 kts 146°
2026-05-06 13:50 -23.57492 -46.69228 3691 ft 159 kts 146°
2026-05-06 13:51 -23.58400 -46.68600 3494 ft 151 kts 146°
2026-05-06 13:51 -23.59279 -46.67992 3293 ft 149 kts 145°
2026-05-06 13:51 -23.60149 -46.67391 3075 ft 148 kts 146°
2026-05-06 13:51 -23.61000 -46.66798 2891 ft 146 kts 145°
2026-05-06 13:52 -23.61862 -46.66202 2689 ft 144 kts 144°
2026-05-06 13:52 -23.62649 -46.65657 2618 ft 107 kts 148°
2026-05-06 13:52 -23.63031 -46.65394 2637 ft 34 kts 148°
2026-05-06 13:52 -23.63140 -46.65378 2639 ft 12 kts 191°
2026-05-06 13:53 -23.63168 -46.65432 2639 ft 10 kts 300°
2026-05-06 13:53 -23.63102 -46.65489 2636 ft 15 kts 328°
2026-05-06 13:53 -23.62993 -46.65528 2630 ft 15 kts 342°
2026-05-06 13:53 -23.62895 -46.65595 2626 ft 17 kts 326°
2026-05-06 13:54 -23.62795 -46.65664 2624 ft 18 kts 328°
2026-05-06 13:54 -23.62673 -46.65749 2619 ft 23 kts 329°
2026-05-06 13:54 -23.62557 -46.65831 2615 ft 16 kts 329°
2026-05-06 13:54 -23.62472 -46.65889 2612 ft 7 kts 327°
2026-05-06 13:55 -23.62447 -46.65917 2610 ft 4 kts 279°
2026-05-06 13:55 -23.62467 -46.65954 2610 ft 7 kts 236°
2026-05-06 13:55 -23.62484 -46.65984 2610 ft 2 kts 238°